Weather History for Seldovia, AK

Change the Weather History Date:

Wednesday, March 20, 2013

  Actual Average (PAHO) Record (PAHO)
Temperature  
Mean Temperature 24 °F -  
Max Temperature 30 °F 38 °F 49 °F (1941)
Min Temperature 19 °F 24 °F -3 °F (1959)
Degree Days  
Heating Degree Days 42    
Moisture  
Dew Point 7 °F    
Average Humidity 48    
Maximum Humidity 58    
Minimum Humidity 37    
Precipitation  
Precipitation 0.00 in - - ()
Sea Level Pressure  
Sea Level Pressure 29.94 in    
Wind  
Wind Speed 10 mph (NNE)    
Max Wind Speed 13 mph    
Max Gust Speed 23 mph    
Visibility 10 miles    
Events      
Averages and records for this station are not official NWS values.
T = Trace of Precipitation, MM = Missing Value Source: NWS Daily Summary

Daily Weather History Graph

Daily Weather History Graph

Search for Another Location

Airport:

Trip Planner

Search our weather history database for the weather conditions in past years. The results will help you decide how hot, cold, wet, or windy it might be!

Date:

Astronomy

Mar. 20, 2013 Rise Set
Actual Time 8:07 AM AKDT 8:22 PM AKDT
Civil Twilight 7:26 AM AKDT 9:03 PM AKDT
Nautical Twilight 6:37 AM AKDT 9:52 PM AKDT
Astronomical Twilight 5:44 AM AKDT 10:46 PM AKDT
Moon 12:48 PM AKDT (3/20) 5:14 AM AKDT (3/20)
Length of Visible Light 13h 37m
Length of Day
12h 15m
First Quarter, 60% of the Moon is Illuminated
Mar 20
First Quarter
Mar 27
Full
Apr 2
Last Quarter
Apr 10
New
Apr 18
First Quarter

Hourly Weather History & Observations

Time (AKDT) Temp. Windchill Dew Point Humidity Pressure Visibility Wind Dir Wind Speed Gust Speed Precip Events Conditions
12:53 AM 26.1 °F 15.0 °F 7.0 °F 44% 29.90 in 10.0 mi North 12.7 mph 20.7 mph N/A   Clear
1:53 AM 25.0 °F 13.6 °F 1.9 °F 37% 29.89 in 10.0 mi North 12.7 mph 23.0 mph N/A   Clear
2:53 AM 24.1 °F 12.5 °F 3.9 °F 42% 29.89 in 10.0 mi NNE 12.7 mph 21.9 mph N/A   Clear
3:53 AM 21.9 °F 9.8 °F 3.9 °F 46% 29.90 in 10.0 mi North 12.7 mph 20.7 mph N/A   Clear
4:53 AM 21.9 °F 10.4 °F 3.9 °F 46% 29.91 in 10.0 mi North 11.5 mph 20.7 mph N/A   Clear
5:53 AM 21.0 °F 9.3 °F 5.0 °F 50% 29.91 in 10.0 mi North 11.5 mph - N/A   Clear
6:53 AM 21.0 °F 9.3 °F 3.9 °F 48% 29.91 in 10.0 mi North 11.5 mph 19.6 mph N/A   Clear
7:53 AM 19.9 °F 8.6 °F 3.9 °F 50% 29.92 in 10.0 mi North 10.4 mph - N/A   Clear
8:53 AM 21.0 °F 11.4 °F 3.0 °F 46% 29.93 in 10.0 mi North 8.1 mph - N/A   Clear
9:53 AM 21.9 °F 12.5 °F 3.9 °F 46% 29.93 in 10.0 mi North 8.1 mph - N/A   Clear
10:53 AM 24.1 °F 13.7 °F 3.9 °F 42% 29.94 in 10.0 mi North 10.4 mph - N/A   Clear
11:53 AM 25.0 °F 15.5 °F 6.1 °F 45% 29.94 in 10.0 mi NNE 9.2 mph - N/A   Scattered Clouds
12:53 PM 26.1 °F 17.6 °F 6.1 °F 43% 29.95 in 10.0 mi NNE 8.1 mph - N/A   Scattered Clouds
1:53 PM 27.0 °F 18.7 °F 6.1 °F 41% 29.95 in 10.0 mi NNE 8.1 mph - N/A   Clear
2:53 PM 27.0 °F 18.0 °F 7.0 °F 43% 29.96 in 10.0 mi NNE 9.2 mph - N/A   Clear
3:53 PM 27.0 °F 19.5 °F 10.0 °F 49% 29.96 in 10.0 mi NNE 6.9 mph - N/A   Clear
4:53 PM 27.0 °F - 10.0 °F 49% 29.96 in 10.0 mi Calm Calm - N/A   Partly Cloudy
5:53 PM 28.9 °F 22.8 °F 15.1 °F 56% 29.95 in 10.0 mi Variable 5.8 mph - N/A   Scattered Clouds
6:53 PM 28.9 °F 23.9 °F 15.1 °F 56% 29.95 in 10.0 mi Variable 4.6 mph - N/A   Scattered Clouds
7:53 PM 28.0 °F - 14.0 °F 56% 29.95 in 10.0 mi Calm Calm - N/A   Clear
8:53 PM 27.0 °F 19.5 °F 14.0 °F 58% 29.96 in 10.0 mi Variable 6.9 mph - N/A   Mostly Cloudy
10:53 PM 27.0 °F 21.6 °F 12.0 °F 53% 29.97 in 10.0 mi ESE 4.6 mph - N/A   Overcast
11:53 PM 27.0 °F 21.6 °F 12.0 °F 53% 29.98 in 10.0 mi Variable 4.6 mph - N/A   Overcast